N517RG MMAN-MMQT

Flight info

Callsign N517RG
Flight time N/A
Altitude 28000
Route MTY2E MTY UJ45 QET
Aircraft PC12/L-SDFGRWY/S

Departure

Time 2026-04-23 21:59
Airport Del Norte International Airport (MMAN)

Arrival

Time N/A
Airport Querétaro Intercontinental Airport (MMQT)
Time Latitude Longitude Altitude Speed Heading
2026-04-23 21:46 25.86089 -100.23906 1480 ft 0 kts 39°
2026-04-23 21:54 25.86092 -100.23903 1480 ft 3 kts 40°
2026-04-23 21:54 25.86096 -100.23854 1473 ft 9 kts 123°
2026-04-23 21:55 25.86109 -100.23801 1478 ft 9 kts 41°
2026-04-23 21:55 25.86194 -100.23737 1475 ft 19 kts 32°
2026-04-23 21:55 25.86318 -100.23653 1479 ft 22 kts 34°
2026-04-23 21:55 25.86442 -100.23564 1474 ft 21 kts 31°
2026-04-23 21:56 25.86552 -100.23489 1479 ft 13 kts 28°
2026-04-23 21:56 25.86627 -100.23437 1476 ft 13 kts 35°
2026-04-23 21:56 25.86709 -100.23380 1475 ft 15 kts 32°
2026-04-23 21:56 25.86808 -100.23311 1480 ft 17 kts 33°
2026-04-23 21:57 25.86908 -100.23241 1481 ft 17 kts 33°
2026-04-23 21:57 25.87006 -100.23176 1481 ft 16 kts 27°
2026-04-23 21:57 25.87102 -100.23181 1481 ft 16 kts 306°
2026-04-23 21:57 25.87152 -100.23281 1482 ft 14 kts 274°
2026-04-23 21:58 25.87091 -100.23354 1482 ft 16 kts 212°
2026-04-23 21:58 25.86874 -100.23499 1481 ft 64 kts 211°
2026-04-23 21:58 25.86402 -100.23836 1529 ft 95 kts 210°
2026-04-23 21:58 25.85794 -100.24316 1713 ft 121 kts 209°
2026-04-23 21:59 25.85054 -100.24919 2085 ft 140 kts 215°
2026-04-23 21:59 25.84159 -100.25557 2416 ft 166 kts 208°
2026-04-23 21:59 25.83140 -100.26234 2921 ft 168 kts 208°
2026-04-23 22:00 25.81029 -100.27121 3965 ft 164 kts 151°
2026-04-23 22:00 25.80210 -100.26305 4676 ft 160 kts 129°
2026-04-23 22:00 25.79487 -100.25333 5178 ft 167 kts 129°
2026-04-23 22:00 25.78733 -100.24326 5711 ft 173 kts 130°
2026-04-23 22:01 25.77951 -100.23283 6214 ft 179 kts 131°
2026-04-23 22:01 25.77147 -100.22205 6696 ft 183 kts 130°
2026-04-23 22:01 25.76337 -100.21109 7235 ft 184 kts 133°
2026-04-23 22:01 25.75272 -100.20348 7728 ft 184 kts 161°
2026-04-23 22:02 25.74057 -100.19887 8242 ft 185 kts 164°
2026-04-23 22:02 25.72836 -100.19434 8748 ft 186 kts 164°
2026-04-23 22:02 25.71623 -100.18975 9207 ft 187 kts 165°
2026-04-23 22:02 25.70372 -100.18489 9656 ft 189 kts 164°
2026-04-23 22:03 25.69134 -100.17997 10064 ft 190 kts 164°
2026-04-23 22:03 25.67908 -100.17503 10489 ft 190 kts 164°
2026-04-23 22:03 25.66661 -100.17001 10906 ft 191 kts 164°
2026-04-23 22:03 25.65409 -100.16491 11321 ft 192 kts 164°
2026-04-23 22:04 25.64151 -100.15976 11745 ft 193 kts 165°
2026-04-23 22:04 25.62888 -100.15464 12156 ft 192 kts 169°
2026-04-23 22:04 25.61613 -100.15609 12548 ft 185 kts 205°
2026-04-23 22:04 25.60404 -100.16102 12962 ft 186 kts 200°